| time (UTC) | temp F | wind direction | speed MPH | gust MPH | rain 1hr in | rain 24hr in | rain mn in | humidity % | barometer mb |
| 20260508034034 | 38 | 52 | 3.0 | 4.0 | 0.05 | 0.15 | 0.15 | 99 | 1012.4 |
| 20260508033030 | 38 | 102 | 2.0 | 3.0 | 0.12 | 0.14 | 0.14 | 98 | 1012.3 |
| 20260508032030 | 39 | 81 | 2.0 | 6.0 | 0.26 | 0.11 | 0.11 | 97 | 1011.8 |
| 20260508031028 | 40 | 23 | 3.0 | 9.0 | 0.33 | 0.07 | 0.07 | 96 | 1012.1 |
| 20260508030023 | 42 | 66 | 5.0 | 6.0 | 0.07 | 0.01 | 0.01 | 90 | 1011.8 |
| 20260508025022 | 44 | 357 | 2.0 | 6.0 | 0.00 | 0.00 | 0.00 | 79 | 1011.1 |
| 20260508024020 | 45 | 320 | 4.0 | 8.0 | 0.00 | 0.00 | 0.00 | 76 | 1010.7 |
| 20260508023015 | 46 | 11 | 2.0 | 5.0 | 0.00 | 0.00 | 0.00 | 70 | 1010.4 |
| 20260508022013 | 46 | 77 | 4.0 | 5.0 | 0.00 | 0.00 | 0.00 | 70 | 1010.5 |
| 20260508021010 | 46 | 41 | 2.0 | 4.0 | 0.00 | 0.00 | 0.00 | 67 | 1010.5 |
| 20260508020006 | 47 | 10 | 2.0 | 4.0 | 0.00 | 0.00 | 0.00 | 68 | 1010.3 |
| 20260508015000 | 47 | 57 | 4.0 | 6.0 | 0.00 | 0.00 | 0.00 | 67 | 1010.3 |
| 20260508013958 | 47 | 329 | 2.0 | 4.0 | 0.00 | 0.00 | 0.00 | 66 | 1010.1 |
| 20260508012958 | 47 | 333 | 2.0 | 3.0 | 0.00 | 0.00 | 0.00 | 66 | 1010.4 |
| 20260508011958 | 47 | 60 | 2.0 | 3.0 | 0.00 | 0.00 | 0.00 | 67 | 1009.9 |
| 20260508010953 | 47 | 340 | 1.0 | 3.0 | 0.00 | 0.00 | 0.00 | 65 | 1010.0 |
| 20260508005953 | 48 | 32 | 3.0 | 4.0 | 0.00 | 0.00 | 0.00 | 64 | 1009.8 |
| 20260508004952 | 48 | 69 | 3.0 | 4.0 | 0.00 | 0.00 | 0.00 | 68 | 1009.7 |
| 20260508003951 | 48 | 28 | 2.0 | 3.0 | 0.00 | 0.00 | 0.00 | 62 | 1009.8 |
| 20260508002951 | 48 | 34 | 2.0 | 3.0 | 0.00 | 0.00 | 0.00 | 61 | 1009.7 |
| 20260508001949 | 48 | 10 | 1.0 | 3.0 | 0.00 | 0.00 | 0.00 | 61 | 1009.3 |
| 20260508000948 | 49 | 29 | 2.0 | 3.0 | 0.00 | 0.00 | 0.00 | 59 | 1009.2 |
| 20260507235947 | 49 | 14 | 4.0 | 5.0 | 0.00 | 0.00 | 0.00 | 58 | 1009.3 |
| 20260507234942 | 50 | 333 | 3.0 | 5.0 | 0.00 | 0.00 | 0.00 | 58 | 1009.4 |
| 20260507233941 | 50 | 340 | 3.0 | 5.0 | 0.00 | 0.00 | 0.00 | 59 | 1009.4 |
| 20260507232936 | 50 | 18 | 2.0 | 5.0 | 0.00 | 0.00 | 0.00 | 57 | 1008.9 |
| 20260507231935 | 50 | 348 | 4.0 | 4.0 | 0.00 | 0.00 | 0.00 | 55 | 1009.1 |
| 20260507230934 | 51 | 2 | 4.0 | 5.0 | 0.00 | 0.00 | 0.00 | 54 | 1009.3 |
| 20260507225932 | 51 | 13 | 2.0 | 5.0 | 0.00 | 0.00 | 0.00 | 53 | 1008.8 |
| 20260507224930 | 51 | 32 | 3.0 | 6.0 | 0.00 | 0.00 | 0.00 | 54 | 1009.1 |
| 20260507223929 | 51 | 1 | 1.0 | 4.0 | 0.00 | 0.00 | 0.00 | 54 | 1008.9 |
| 20260507222928 | 51 | 0 | 3.0 | 4.0 | 0.00 | 0.00 | 0.00 | 56 | 1009.0 |
| 20260507221927 | 51 | 354 | 4.0 | 6.0 | 0.00 | 0.00 | 0.00 | 53 | 1008.9 |
| 20260507220926 | 51 | 350 | 2.0 | 5.0 | 0.00 | 0.00 | 0.00 | 56 | 1009.0 |
| 20260507215926 | 52 | 47 | 3.0 | 7.0 | 0.00 | 0.00 | 0.00 | 52 | 1009.0 |
| 20260507214926 | 52 | 43 | 4.0 | 5.0 | 0.00 | 0.00 | 0.00 | 53 | 1008.8 |
| 20260507213925 | 52 | 31 | 4.0 | 7.0 | 0.00 | 0.00 | 0.00 | 55 | 1009.1 |
| 20260507212925 | 52 | 29 | 9.0 | 10.0 | 0.00 | 0.00 | 0.00 | 56 | 1009.1 |
| 20260507211924 | 53 | 352 | 8.0 | 9.0 | 0.00 | 0.00 | 0.00 | 50 | 1008.8 |
| 20260507210923 | 54 | 346 | 5.0 | 6.0 | 0.00 | 0.00 | 0.00 | 49 | 1008.9 |
| 20260507205922 | 53 | 12 | 5.0 | 6.0 | 0.00 | 0.00 | 0.00 | 52 | 1008.9 |
| 20260507204921 | 54 | 11 | 3.0 | 4.0 | 0.00 | 0.00 | 0.00 | 57 | 1009.1 |
| 20260507203922 | 55 | 338 | 7.0 | 11.0 | 0.00 | 0.00 | 0.00 | 47 | 1009.1 |
| 20260507202921 | 53 | 6 | 8.0 | 10.0 | 0.00 | 0.00 | 0.00 | 49 | 1008.8 |
| 20260507201920 | 54 | 354 | 9.0 | 17.0 | 0.00 | 0.00 | 0.00 | 49 | 1009.0 |
| 20260507200918 | 53 | 255 | 2.0 | 3.0 | 0.00 | 0.00 | 0.00 | 52 | 1009.1 |
| 20260507195915 | 52 | 130 | 2.0 | 7.0 | 0.00 | 0.00 | 0.00 | 52 | 1009.2 |
| 20260507194910 | 52 | 23 | 3.0 | 8.0 | 0.00 | 0.00 | 0.00 | 52 | 1009.1 |
| 20260507193908 | 52 | 82 | 4.0 | 8.0 | 0.00 | 0.00 | 0.00 | 52 | 1009.4 |
| 20260507192908 | 52 | 14 | 3.0 | 9.0 | 0.00 | 0.00 | 0.00 | 52 | 1009.6 |
| 20260507191907 | 51 | 27 | 6.0 | 9.0 | 0.00 | 0.00 | 0.00 | 55 | 1009.5 |
| 20260507190905 | 51 | 258 | 6.0 | 8.0 | 0.00 | 0.00 | 0.00 | 53 | 1009.6 |
| 20260507185902 | 52 | 11 | 5.0 | 9.0 | 0.00 | 0.00 | 0.00 | 53 | 1009.6 |
| 20260507184901 | 54 | 328 | 3.0 | 6.0 | 0.00 | 0.00 | 0.00 | 51 | 1009.7 |
| 20260507183901 | 53 | 23 | 1.0 | 5.0 | 0.00 | 0.00 | 0.00 | 54 | 1009.7 |
| 20260507182856 | 53 | 47 | 10.0 | 12.0 | 0.00 | 0.00 | 0.00 | 49 | 1009.7 |
| 20260507181854 | 53 | 328 | 6.0 | 12.0 | 0.00 | 0.00 | 0.00 | 52 | 1009.9 |
| 20260507180853 | 54 | 348 | 1.0 | 7.0 | 0.00 | 0.00 | 0.00 | 53 | 1009.9 |
| 20260507175851 | 53 | 287 | 4.0 | 11.0 | 0.00 | 0.00 | 0.00 | 47 | 1010.0 |
| 20260507174846 | 52 | 75 | 9.0 | 11.0 | 0.00 | 0.00 | 0.00 | 53 | 1010.4 |
| 20260507173846 | 51 | 301 | 6.0 | 9.0 | 0.00 | 0.00 | 0.00 | 55 | 1010.4 |
| 20260507172845 | 52 | 126 | 4.0 | 10.0 | 0.00 | 0.00 | 0.00 | 58 | 1010.6 |
| 20260507171844 | 52 | 152 | 0.0 | 9.0 | 0.00 | 0.00 | 0.00 | 55 | 1010.4 |
| 20260507170843 | 51 | 333 | 4.0 | 6.0 | 0.00 | 0.00 | 0.00 | 52 | 1010.7 |
| 20260507165841 | 51 | 293 | 4.0 | 6.0 | 0.00 | 0.00 | 0.00 | 54 | 1010.8 |
| 20260507164839 | 51 | 252 | 7.0 | 9.0 | 0.00 | 0.00 | 0.00 | 50 | 1010.7 |
| 20260507163839 | 52 | 298 | 3.0 | 6.0 | 0.00 | 0.00 | 0.00 | 50 | 1010.9 |
| 20260507162839 | 53 | 12 | 3.0 | 6.0 | 0.00 | 0.00 | 0.00 | 61 | 1011.1 |
| 20260507161837 | 51 | 61 | 3.0 | 6.0 | 0.00 | 0.00 | 0.00 | 56 | 1011.2 |
| 20260507160836 | 51 | 4 | 2.0 | 7.0 | 0.00 | 0.00 | 0.00 | 61 | 1011.2 |
| 20260507155834 | 49 | 315 | 2.0 | 9.0 | 0.00 | 0.00 | 0.00 | 59 | 1011.3 |
| 20260507154833 | 50 | 315 | 3.0 | 9.0 | 0.00 | 0.00 | 0.00 | 58 | 1011.5 |
| 20260507153833 | 49 | 354 | 6.0 | 11.0 | 0.00 | 0.00 | 0.00 | 55 | 1011.6 |
| 20260507152832 | 49 | 1 | 6.0 | 11.0 | 0.00 | 0.00 | 0.00 | 56 | 1011.7 |
| 20260507151830 | 51 | 308 | 6.0 | 11.0 | 0.00 | 0.00 | 0.00 | 57 | 1011.8 |
| 20260507150829 | 50 | 294 | 2.0 | 7.0 | 0.00 | 0.00 | 0.00 | 62 | 1011.9 |
| 20260507145828 | 50 | 352 | 3.0 | 9.0 | 0.00 | 0.00 | 0.00 | 54 | 1012.0 |
| 20260507144828 | 51 | 259 | 6.0 | 13.0 | 0.00 | 0.00 | 0.00 | 55 | 1012.0 |
| 20260507143827 | 48 | 18 | 7.0 | 8.0 | 0.00 | 0.00 | 0.00 | 60 | 1012.1 |
| 20260507142826 | 49 | 242 | 2.0 | 9.0 | 0.00 | 0.00 | 0.00 | 55 | 1012.0 |
| 20260507141826 | 50 | 337 | 1.0 | 6.0 | 0.00 | 0.00 | 0.00 | 58 | 1012.4 |
| 20260507140825 | 48 | 10 | 3.0 | 5.0 | 0.00 | 0.00 | 0.00 | 60 | 1012.3 |
| 20260507135820 | 48 | 304 | 4.0 | 4.0 | 0.00 | 0.00 | 0.00 | 60 | 1012.1 |
| 20260507134819 | 48 | 277 | 5.0 | 7.0 | 0.00 | 0.00 | 0.00 | 58 | 1012.3 |
| 20260507133817 | 47 | 5 | 3.0 | 6.0 | 0.00 | 0.00 | 0.00 | 54 | 1012.4 |
| 20260507132817 | 48 | 359 | 2.0 | 4.0 | 0.00 | 0.00 | 0.00 | 59 | 1012.1 |
| 20260507131817 | 46 | 336 | 3.0 | 4.0 | 0.00 | 0.00 | 0.00 | 65 | 1012.3 |
| 20260507130816 | 46 | 30 | 2.0 | 8.0 | 0.00 | 0.00 | 0.00 | 64 | 1012.1 |
| 20260507125812 | 45 | 11 | 2.0 | 6.0 | 0.00 | 0.00 | 0.00 | 67 | 1012.5 |
| 20260507124812 | 45 | 17 | 1.0 | 5.0 | 0.00 | 0.00 | 0.00 | 78 | 1012.5 |
| 20260507123807 | 44 | 252 | 2.0 | 6.0 | 0.00 | 0.00 | 0.00 | 78 | 1012.5 |
| 20260507122806 | 43 | 1 | 4.0 | 6.0 | 0.00 | 0.00 | 0.00 | 77 | 1012.5 |
| 20260507121804 | 43 | 9 | 3.0 | 4.0 | 0.00 | 0.00 | 0.00 | 78 | 1012.5 |
| 20260507120802 | 44 | 13 | 3.0 | 4.0 | 0.00 | 0.00 | 0.00 | 78 | 1012.5 |
| 20260507115800 | 42 | 0 | 2.0 | 4.0 | 0.00 | 0.00 | 0.00 | 79 | 1012.4 |
| 20260507114758 | 42 | 38 | 4.0 | 7.0 | 0.00 | 0.00 | 0.00 | 81 | 1012.4 |
| 20260507113753 | 41 | 30 | 4.0 | 6.0 | 0.00 | 0.00 | 0.00 | 81 | 1012.3 |
| 20260507112753 | 40 | 54 | 5.0 | 7.0 | 0.00 | 0.00 | 0.00 | 81 | 1012.5 |
| 20260507111748 | 40 | 28 | 4.0 | 6.0 | 0.00 | 0.00 | 0.00 | 84 | 1012.3 |
| 20260507110746 | 39 | 55 | 4.0 | 7.0 | 0.00 | 0.00 | 0.00 | 84 | 1012.3 |
| 20260507105746 | 40 | 52 | 5.0 | 6.0 | 0.00 | 0.00 | 0.00 | 84 | 1012.1 |
| 20260507104745 | 40 | 54 | 4.0 | 7.0 | 0.00 | 0.00 | 0.00 | 87 | 1011.8 |
| 20260507103743 | 39 | 73 | 5.0 | 8.0 | 0.00 | 0.00 | 0.00 | 88 | 1011.5 |
| 20260507102742 | 37 | 36 | 8.0 | 8.0 | 0.00 | 0.00 | 0.00 | 90 | 1012.0 |
| 20260507101741 | 36 | 63 | 6.0 | 7.0 | 0.00 | 0.00 | 0.00 | 91 | 1011.7 |
| 20260507100739 | 36 | 63 | 5.0 | 6.0 | 0.00 | 0.00 | 0.00 | 91 | 1011.4 |
| 20260507095735 | 36 | 68 | 5.0 | 7.0 | 0.00 | 0.00 | 0.00 | 91 | 1011.5 |
| 20260507094734 | 36 | 58 | 6.0 | 9.0 | 0.00 | 0.00 | 0.00 | 92 | 1011.7 |
| 20260507093734 | 37 | 48 | 8.0 | 9.0 | 0.00 | 0.00 | 0.00 | 90 | 1011.8 |
| 20260507092730 | 37 | 53 | 5.0 | 6.0 | 0.00 | 0.00 | 0.00 | 90 | 1011.7 |
| 20260507091728 | 37 | 54 | 6.0 | 7.0 | 0.00 | 0.00 | 0.00 | 90 | 1011.6 |
| 20260507090725 | 37 | 66 | 6.0 | 8.0 | 0.00 | 0.00 | 0.00 | 90 | 1011.5 |
| 20260507085725 | 38 | 77 | 4.0 | 6.0 | 0.00 | 0.00 | 0.00 | 89 | 1011.8 |
| 20260507084724 | 38 | 50 | 4.0 | 6.0 | 0.00 | 0.00 | 0.00 | 90 | 1011.7 |
| 20260507083724 | 38 | 59 | 5.0 | 6.0 | 0.00 | 0.00 | 0.00 | 90 | 1011.7 |
| 20260507082722 | 39 | 48 | 6.0 | 9.0 | 0.00 | 0.00 | 0.00 | 90 | 1011.7 |
| 20260507081720 | 39 | 38 | 7.0 | 8.0 | 0.00 | 0.00 | 0.00 | 90 | 1011.8 |
| 20260507080719 | 40 | 43 | 4.0 | 8.0 | 0.00 | 0.00 | 0.00 | 89 | 1011.7 |
| 20260507075716 | 40 | 32 | 5.0 | 8.0 | 0.00 | 0.00 | 0.00 | 92 | 1011.7 |
| 20260507074715 | 41 | 51 | 5.0 | 6.0 | 0.00 | 0.00 | 0.00 | 94 | 1011.6 |
| 20260507073710 | 41 | 60 | 4.0 | 5.0 | 0.00 | 0.00 | 0.00 | 94 | 1011.6 |
| 20260507072710 | 40 | 115 | 2.0 | 4.0 | 0.00 | 0.00 | 0.00 | 94 | 1011.7 |
| 20260507071710 | 40 | 22 | 9.0 | 10.0 | 0.00 | 0.00 | 0.00 | 95 | 1011.8 |
| 20260507070710 | 40 | 75 | 4.0 | 5.0 | 0.00 | 0.00 | 0.00 | 96 | 1011.9 |
| 20260507065708 | 40 | 54 | 2.0 | 4.0 | 0.00 | 0.00 | 0.00 | 98 | 1011.7 |
| 20260507064703 | 40 | 83 | 2.0 | 5.0 | 0.00 | 0.00 | 0.00 | 96 | 1011.8 |
| 20260507063659 | 40 | 103 | 3.0 | 4.0 | 0.00 | 0.00 | 0.00 | 95 | 1011.7 |
| 20260507062658 | 40 | 53 | 3.0 | 6.0 | 0.00 | 0.00 | 0.00 | 95 | 1011.7 |
| 20260507061653 | 40 | 74 | 3.0 | 4.0 | 0.00 | 0.00 | 0.00 | 96 | 1011.7 |
| 20260507060649 | 40 | 317 | 1.0 | 5.0 | 0.00 | 0.00 | 0.00 | 97 | 1011.7 |
| 20260507055647 | 41 | 38 | 3.0 | 4.0 | 0.00 | 0.00 | 0.00 | 97 | 1011.6 |
| 20260507054645 | 40 | 41 | 2.0 | 4.0 | 0.00 | 0.00 | 0.00 | 98 | 1011.3 |
| 20260507053640 | 41 | 353 | 1.0 | 4.0 | 0.00 | 0.00 | 0.00 | 99 | 1011.6 |
| 20260507052636 | 41 | 295 | 2.0 | 4.0 | 0.00 | 0.00 | 0.00 | 99 | 1011.6 |
| 20260507051635 | 41 | 327 | 1.0 | 5.0 | 0.00 | 0.00 | 0.00 | 99 | 1011.4 |
| 20260507050635 | 42 | 319 | 3.0 | 4.0 | 0.00 | 0.00 | 0.00 | 99 | 1011.5 |
| 20260507045634 | 41 | 43 | 2.0 | 2.0 | 0.00 | 0.00 | 0.00 | 99 | 1011.2 |
| 20260507044634 | 41 | 40 | 2.0 | 4.0 | 0.00 | 0.00 | 0.00 | 99 | 1011.3 |
| 20260507043633 | 41 | 67 | 2.0 | 3.0 | 0.00 | 0.00 | 0.00 | 99 | 1011.4 |
| 20260507042632 | 41 | 52 | 0.0 | 3.0 | 0.00 | 0.00 | 0.00 | 99 | 1011.4 |
| 20260507041630 | 41 | 63 | 1.0 | 3.0 | 0.00 | 0.00 | 0.00 | 99 | 1011.2 |
| 20260507040630 | 41 | 69 | 2.0 | 3.0 | 0.00 | 0.00 | 0.00 | 99 | 1011.6 |
| 20260507035628 | 42 | 104 | 0.0 | 2.0 | 0.00 | 0.39 | 0.39 | 99 | 1011.2 |
| 20260507034626 | 41 | 78 | 1.0 | 3.0 | 0.00 | 0.39 | 0.39 | 99 | 1011.4 |